Regional Weather Roundup
Issued by NWS

Home | Current Version | Previous Version | Text Only | Print | Product List | Glossary Off
Versions: 1 2 3 4 5 6 7 8 9 10 11 12 13 14 15 16 17 18 19 20 21 22 23 24 25 26 27 28 29 30 31 32 33 34 35 36 37 38 39 40 41 42 43 44 45 46 47 48 49 50

000
ASUS45 KSLC 311710
RWRUT

UTAH REGIONAL WEATHER ROUNDUP
NATIONAL WEATHER SERVICE SALT LAKE CITY UT
1100 AM MDT MON AUG 31 2015

UTZ001>011-023>025-311800-

NORTHERN UTAH

CITY           SKY/WX    TMP DP  RH WIND       PRES   REMARKS
BRIGHAM CITY   SUNNY     72  34  25 CALM      30.11S
HILL AFB       SUNNY     73  44  34 S6        30.13R
LOGAN          SUNNY     66  33  29 CALM      30.13F
OGDEN          SUNNY     74  43  32 VRB3      30.10S
PROVO AIRPORT  MOSUNNY   73  52  46 SE3       30.12S
SALT LAKE CITY MOSUNNY   76  41  28 W6        30.09S
VERNAL         MOSUNNY   72  51  47 VRB6      30.18F
WENDOVER       SUNNY     75  28  17 SE8       30.12S
HEBER CITY     SUNNY     70  46  43 CALM      30.17F
WEST JORDAN    SUNNY     73  43  33 N6        30.12S

$$

UTZ012>022-026-027-311800-

SOUTHERN/CENTRAL UTAH

CITY           SKY/WX    TMP DP  RH WIND       PRES   REMARKS
BLANDING       MOSUNNY   73  55  52 S6        30.32R
BRYCE CANYON   SUNNY     68  52  56 SE9       30.33S
CEDAR CITY     MOSUNNY   79  45  29 S14       30.16S
DELTA          SUNNY     76  38  25 S12       30.12S
HANKSVILLE     SUNNY     79  54  41 NE7       30.14S
MILFORD        SUNNY     79  50  36 S12       30.12S
MOAB/CYNLANDS  SUNNY     76  59  55 E7        30.14R
PRICE          SUNNY     71  52  50 SE8       30.22S
ST GEORGE      SUNNY     88  55  33 E12       30.02S
KANAB          MOSUNNY   75  61  60 CALM      30.23S

$$

REGIONAL REPORTS     COLORADO/ARIZONA

CITY           SKY/WX    TMP DP  RH WIND       PRES   REMARKS
CRAIG, CO      PTSUNNY   71  51  49 NE7       30.25R
GRAND JUNCTION PTSUNNY   67  60  78 S8        30.20R
RIFLE          CLOUDY    66  56  70 E3        30.25R
MONTROSE       CLOUDY    66  56  70 CALM      30.28R
CORTEZ         SUNNY     74  51  44 S3        30.25R
PAGE, AZ       PTSUNNY   75  59  57 NE5       30.15R
GRAND CANYON   PTSUNNY   68  55  63 SE5       30.30R
KINGMAN        MOSUNNY   89  40  17 VRB3      30.03R
FLAGSTAFF      SUNNY     69  56  62 SW8       30.34R

$$

REGIONAL REPORTS    NEVADA/IDAHO/WYOMING

CITY           SKY/WX    TMP DP  RH WIND       PRES   REMARKS
LAS VEGAS, NV  MOSUNNY   91  42  18 NE3       29.87S
ELY            SUNNY     69  27  20 NE6       30.21S
ELKO           SUNNY     66  25  21 VRB5      30.15S
POCATELLO, ID  SUNNY     68  38  33 W14       30.15S
BURLEY         SUNNY     65  43  44 VRB5      30.12F
EVANSTON, WY   MOSUNNY   69  36  29 SW10      30.25S
ROCK SPRINGS   SUNNY     65  50  58 MISG      30.24R
KEMMERER       SUNNY     68  23  18 W7        30.26S

$$


USA.gov is the U.S. government's official web portal to all federal, state and local government web resources and services.